Regional Weather Roundup
Issued by NWS

Home | Current Version | Previous Version | Graphics & Text | Print | Product List | Glossary On
Versions: 1 2 3 4 5 6 7 8 9 10 11 12 13 14 15 16 17 18 19 20 21 22 23 24 25 26 27 28 29 30 31 32 33 34 35 36 37 38 39 40 41 42 43 44 45 46 47 48 49 50
000
ASUS43 KLOT 052008
RWRIL

ILLINOIS REGIONAL WEATHER ROUNDUP
NATIONAL WEATHER SERVICE CHICAGO/ROMEOVILLE IL
200 PM CST FRI FEB 05 2016

NOTE: "FAIR" INDICATES FEW OR NO CLOUDS BELOW 12,000 FEET WITH NO
SIGNIFICANT WEATHER AND/OR OBSTRUCTIONS TO VISIBILITY.

* THESE STATIONS ARE NOT UNDER NWS QUALITY CONTROL. THEY ALSO MAY NOT
  REPORT WEATHER SUCH AS PRECIPITATION OR FOG.

ILZ001-002-007-009-015-016-024-052100-
NORTHWEST ILLINOIS

CITY           SKY/WX    TMP DP  RH WIND       PRES   REMARKS
MOLINE         CLOUDY    32  19  58 W6        30.38S WCI  26
STERLING*      CLOUDY    30  19  64 W6        30.35S WCI  24
SAVANNA*       MOSUNNY   31  20  63 W3        30.37S
$$

ILZ003-004-008-010-011-017-018-052100-
NORTH CENTRAL ILLINOIS

CITY           SKY/WX    TMP DP  RH WIND       PRES   REMARKS
ROCKFORD       CLOUDY    31  19  61 W7        30.36F WCI  24
FREEPORT*      CLOUDY    29  19  65 W6        30.36F WCI  23
ROCHELLE*      MOSUNNY   30  22  73 W6        30.35F WCI  24
DE KALB*       MOSUNNY   30  22  74 NW7       30.34F WCI  23
PERU*          CLOUDY    30  23  74 NW5       30.37F WCI  25
$$

ILZ005-006-012>014-019>023-052100-
NORTHEAST ILLINOIS

CITY           SKY/WX    TMP DP  RH WIND       PRES   REMARKS
CHICAGO-OHARE  PTSUNNY   33  19  56 W9        30.32F WCI  25
CHICAGO-MIDWAY PTSUNNY   33  20  58 NW6       30.33F WCI  28
AURORA         MOSUNNY   31  23  72 NW9       30.35F WCI  23
LANSING*       CLOUDY    32  24  73 N6        30.34S WCI  26
JOLIET*        CLOUDY    31  23  73 W7        30.36S WCI  24
WAUKEGAN       SUNNY     31  18  58 NW8       30.31F WCI  23
DUPAGE AIRPORT SUNNY     31  19  61 W6        30.33F WCI  25
KANKAKEE*      CLOUDY    30  23  75 W8        30.37S WCI  22
WHEELING       SUNNY     33  20  58 NW7       30.34F WCI  27
MORRIS*        CLOUDY    29  23  78 W8        30.34F WCI  21
ROMEOVILLE*    MOSUNNY   31  23  72 W10       30.34F WCI  22
NORTHERLY ISL    N/A     33  25  72 N8          N/A  WCI  26
$$

LMZ740>746-052100-
SOUTHERN LAKE MICHIGAN

STATION/POSITION SKY/WX   TEMP    WIND        PRES    VSBY  WAVE
                          AIR SEA DIR/SP/G                  HT/PER
                          (F)     (DEG/KT/KT) (MB)    (MI)  (FT/S)
HARRISON CRIB              29     350/ 12/ 13   N/A
BURNHAM HARBOR             34      20/  4/  9   N/A
CALUMET HARBOR             30     360/ 12/ 14 1026.7F
BURNS HARBOR               29     340/ 11/ 14 1027.8S
MICHIGAN CITY              30     280/ 16/ 17   N/A
$$

ILZ025>027-034>036-040-047-049-050-058-095>099-052100-
WEST-CENTRAL ILLINOIS

CITY           SKY/WX    TMP DP  RH WIND       PRES   REMARKS
QUINCY         CLOUDY    32  20  61 NW7       30.38F WCI  26
MACOMB*        MOSUNNY   31  22  70 CALM      30.39F
JACKSONVILLE*  CLOUDY    36  22  56 W7        30.38S WCI  30
PITTSFIELD*    MOSUNNY   35  18  50 SW8       30.39S WCI  28
$$

ILZ028>032-037-038-041>044-048-051>054-059>061-052100-
CENTRAL ILLINOIS

CITY           SKY/WX    TMP DP  RH WIND       PRES   REMARKS
PONTIAC        CLOUDY    31  25  78 W8        30.38S WCI  23
BLOOMINGTON    PTSUNNY   32  23  69 NW8       30.37S WCI  25
DECATUR        MOSUNNY   33  22  63 W6        30.38S WCI  28
PEORIA         CLOUDY    32  20  61 N7        30.39F WCI  26
LACON*         CLOUDY    31  20  63 W5        30.38S WCI  26
LINCOLN*       CLOUDY    33  24  69 NW5       30.38F WCI  28
SPRINGFIELD    MOSUNNY   35  23  61 W5        30.38F WCI  31
TAYLORVILLE    SUNNY     34  27  75 W9        30.38F WCI  26
$$

ILZ033-039-045-046-055>057-062-063-052100-
EAST-CENTRAL ILLINOIS

CITY           SKY/WX    TMP DP  RH WIND       PRES   REMARKS
CHAMPAIGN      CLOUDY    31  22  69 W8        30.37S WCI  23
RANTOUL*       CLOUDY    32  25  75 W7        30.37R WCI  25
MATTOON        MOSUNNY   31  23  72 W5        30.37S WCI  26
PARIS*         CLOUDY    31  25  77 NW5       30.38S WCI  26
$$

ILZ079-100>102-052100-
SOUTHWEST ILLINOIS

CITY           SKY/WX    TMP DP  RH WIND       PRES   REMARKS
ALTON          PTSUNNY   37  21  52 MISG      30.39F
BELLEVILLE     CLOUDY    41  20  43 N3        30.37F
CAHOKIA*       MOSUNNY   42  18  37 VRB3      30.38F
SPARTA*        CLOUDY    39  23  53 CALM      30.39F
$$

ILZ064>066-069>071-074>076-080>082-084>086-088>090-092>094-052100-
SOUTH-CENTRAL ILLINOIS

CITY           SKY/WX    TMP DP  RH WIND       PRES   REMARKS
CARBONDALE     SUNNY     46  18  32 W9        30.38F
CAIRO*         SUNNY     48  28  46 S7        30.38F
EFFINGHAM*     CLOUDY    36  25  64 W6        30.40F WCI  31
MARION         PTSUNNY   46  23  39 NW7       30.38F
MT. VERNON     MOSUNNY   39  21  48 CALM      30.39S
CENTRALIA*     CLOUDY    38  26  60 W6        30.38F WCI  34
SALEM*         CLOUDY    38  25  58 W7        30.38F WCI  33
METROPOLIS*    SUNNY     48  25  40 SW12      30.39F
$$

ILZ067-068-072-073-078-083-087-091-052100-
SOUTHEAST ILLINOIS

CITY           SKY/WX    TMP DP  RH WIND       PRES   REMARKS
LAWRENCEVILLE  CLOUDY    40  26  57 W12       30.38F
FLORA*         CLOUDY    39  26  59 NW7       30.39F WCI  34
FAIRFIELD*     MOSUNNY   42  26  52 W5        30.37F
HARRISBURG*    SUNNY     47  26  44 W7        30.38F
ROBINSON*      CLOUDY    38  24  57 NW9       30.39S WCI  32
CARMI*         CLOUDY    45  27  48 W7G17     30.37F
$$

ABBREVIATIONS USED IN REMARKS
   TC - TEMPERATURE IN CELSIUS
  WCI - WIND CHILL INDEX
   HX - HEAT INDEX
  VSB - VISIBILITY
$$




USA.gov is the U.S. government's official web portal to all federal, state and local government web resources and services.